カタログに戻る

STARLINK-31152

運用中通信VLEO
NORAD 58734·PAYLOAD·🇺🇸 United States

打ち上げ Jan 7, 2024 から Cape Canaveral Space Force Station

Loading…

次のパス (今後24時間)

TLE

最新Source: CelesTrak SupGP

元期: Sep 15, 2026, 03:23 UTC

1 58734C 24005G   26258.14145833 -.00008386  00000+0 -30376-3 0  2586
2 58734  42.9997 229.5335 0001157 262.6434  13.7422 15.27580027    16

AllMySatでSTARLINK-31152をリアルタイム追跡

Download on the App Store